GW6261 Weather Reports


Display with metric or nautical units.
time (UTC)temp
F
wind
direction
speed
MPH
gust
MPH
rain 1hr
in
rain 24hr
in
rain mn
in
humidity
%
barometer
mb
20260504210056 79 153 3.0 13.0 0.00 0.00 0.00 62 1010.0
20260504205556 79 149 5.0 6.0 0.00 0.00 0.00 61 1010.0
20260504205057 80 144 8.0 15.0 0.00 0.00 0.00 61 1010.0
20260504204556 79 200 0.0 15.0 0.00 0.00 0.00 62 1010.0
20260504204056 79 135 5.0 8.0 0.00 0.00 0.00 61 1010.0
20260504203556 80 121 8.0 14.0 0.00 0.00 0.00 60 1010.0
20260504203056 80 161 4.0 14.0 0.00 0.00 0.00 60 1010.0
20260504202556 79 151 4.0 11.0 0.00 0.00 0.00 61 1010.0
20260504202056 79 98 9.0 11.0 0.00 0.00 0.00 60 1010.0
20260504201557 79 115 6.0 9.0 0.00 0.00 0.00 61 1010.0
20260504201058 80 119 17.0 19.0 0.00 0.00 0.00 60 1010.0
20260504200556 79 167 3.0 15.0 0.00 0.00 0.00 61 1010.0
20260504200056 79 162 5.0 15.0 0.00 0.00 0.00 60 1010.0
20260504195558 79 108 10.0 15.0 0.00 0.00 0.00 59 1011.0
20260504195056 80 126 10.0 15.0 0.00 0.00 0.00 58 1011.0
20260504194556 80 161 0.0 8.0 0.00 0.00 0.00 58 1010.0
20260504194057 81 223 2.0 8.0 0.00 0.00 0.00 57 1011.0
20260504193556 80 150 8.0 11.0 0.00 0.00 0.00 59 1011.0
20260504193057 80 135 8.0 11.0 0.00 0.00 0.00 58 1011.0
20260504192556 80 148 4.0 13.0 0.00 0.00 0.00 58 1011.0
20260504192056 80 151 4.0 10.0 0.00 0.00 0.00 58 1011.0
20260504191557 80 140 7.0 13.0 0.00 0.00 0.00 59 1011.0
20260504191056 80 117 5.0 10.0 0.00 0.00 0.00 58 1011.0
20260504190556 80 129 1.0 13.0 0.00 0.00 0.00 58 1011.0
20260504190057 80 142 5.0 7.0 0.00 0.00 0.00 58 1012.0
20260504185557 80 253 3.0 10.0 0.00 0.00 0.00 57 1012.0
20260504185056 80 145 4.0 6.0 0.00 0.00 0.00 56 1012.0
20260504184556 80 180 2.0 9.0 0.00 0.00 0.00 57 1012.0
20260504184056 80 222 3.0 5.0 0.00 0.00 0.00 56 1012.0
20260504183556 79 125 11.0 13.0 0.00 0.00 0.00 57 1011.0
20260504183057 80 130 7.0 15.0 0.00 0.00 0.00 57 1012.0
20260504182557 80 124 4.0 4.0 0.00 0.00 0.00 57 1012.0
20260504182056 81 127 15.0 17.0 0.00 0.00 0.00 54 1012.0
20260504181556 80 214 3.0 9.0 0.00 0.00 0.00 55 1012.0
20260504181057 80 115 7.0 11.0 0.00 0.00 0.00 55 1012.0
20260504180557 80 144 4.0 9.0 0.00 0.00 0.00 56 1012.0
20260504180056 80 146 7.0 9.0 0.00 0.00 0.00 55 1012.0
20260504175556 80 123 7.0 10.0 0.00 0.00 0.00 56 1012.0
20260504175057 80 164 2.0 13.0 0.00 0.00 0.00 56 1012.0
20260504174556 80 157 2.0 18.0 0.00 0.00 0.00 55 1012.0
20260504174056 81 121 7.0 17.0 0.00 0.00 0.00 52 1012.0
20260504173556 81 193 1.0 7.0 0.00 0.00 0.00 53 1012.0
20260504173057 80 189 5.0 5.0 0.00 0.00 0.00 52 1012.0
20260504172556 80 174 6.0 7.0 0.00 0.00 0.00 52 1013.0
20260504172057 80 142 3.0 9.0 0.00 0.00 0.00 53 1012.0
20260504171557 80 177 4.0 12.0 0.00 0.00 0.00 54 1013.0
20260504171106 80 151 5.0 6.0 0.00 0.00 0.00 53 1013.0
20260504170556 79 159 3.0 10.0 0.00 0.00 0.00 55 1013.0
20260504151057 76 155 2.0 5.0 0.00 0.00 0.00 64 1014.0
20260504150557 76 143 10.0 14.0 0.00 0.00 0.00 63 1013.0
20260504141057 73 79 1.0 3.0 0.00 0.00 0.00 66 1013.0
20260504140600 73 112 3.0 6.0 0.00 0.00 0.00 66 1013.0
20260504130557 65 106 3.0 5.0 0.00 0.00 0.00 74 1013.0
20260504110558 57 65 1.0 2.0 0.00 0.00 0.00 89 1013.0
20260504100556 57 74 1.0 3.0 0.00 0.00 0.00 89 1013.0
20260504081556 58 36 1.0 2.0 0.00 0.00 0.00 85 1014.0
20260504081057 58 58 2.0 3.0 0.00 0.00 0.00 85 1014.0
20260504080556 58 85 2.0 3.0 0.00 0.00 0.00 85 1014.0
20260504050558 61 109 2.0 5.0 0.00 0.00 0.00 73 1016.0
20260504045556 62 156 3.0 4.0 0.00 0.00 0.00 73 1016.0
20260504045056 62 53 3.0 5.0 0.00 0.00 0.00 72 1016.0
20260504044556 62 86 3.0 5.0 0.00 0.00 0.00 71 1016.0
20260504044056 62 87 1.0 4.0 0.00 0.00 0.00 72 1016.0
20260504043556 62 120 2.0 4.0 0.00 0.00 0.00 71 1016.0
20260504043056 62 302 1.0 4.0 0.00 0.00 0.00 71 1016.0
20260504042557 63 79 1.0 2.0 0.00 0.00 0.00 70 1016.0
20260504042056 63 22 0.0 1.0 0.00 0.00 0.00 69 1016.0
20260504041556 63 89 0.0 0.0 0.00 0.00 0.00 68 1016.0
20260504041056 64 44 0.0 1.0 0.00 0.00 0.00 67 1016.0
20260504040556 64 102 1.0 1.0 0.00 0.00 0.00 66 1016.0
20260504040056 64 101 1.0 2.0 0.00 0.00 0.00 65 1016.0
20260504035556 64 102 2.0 2.0 0.00 0.00 0.00 65 1016.0
20260504035056 64 111 1.0 4.0 0.00 0.00 0.00 64 1016.0
20260504034556 65 103 1.0 2.0 0.00 0.00 0.00 64 1016.0
20260504034056 65 111 1.0 2.0 0.00 0.00 0.00 64 1016.0
20260504033556 65 106 2.0 3.0 0.00 0.00 0.00 64 1016.0
20260504033056 65 85 1.0 2.0 0.00 0.00 0.00 63 1016.0
20260504032557 66 91 1.0 2.0 0.00 0.00 0.00 63 1016.0
20260504032057 66 98 1.0 3.0 0.00 0.00 0.00 62 1016.0
20260504031556 66 133 2.0 3.0 0.00 0.00 0.00 62 1016.0
20260504031057 66 97 1.0 2.0 0.00 0.00 0.00 61 1016.0
20260504030557 67 81 0.0 3.0 0.00 0.00 0.00 61 1016.0
20260504030056 67 96 3.0 4.0 0.00 0.00 0.00 60 1016.0
20260504025556 67 117 3.0 3.0 0.00 0.00 0.00 60 1016.0
20260504025056 67 60 0.0 2.0 0.00 0.00 0.00 59 1016.0
20260504024557 68 111 1.0 3.0 0.00 0.00 0.00 59 1016.0
20260504024057 68 106 2.0 5.0 0.00 0.00 0.00 58 1016.0
20260504023558 68 118 3.0 4.0 0.00 0.00 0.00 59 1016.0
20260504023056 68 98 0.0 2.0 0.00 0.00 0.00 58 1016.0
20260504022557 68 106 1.0 6.0 0.00 0.00 0.00 58 1016.0
20260504022056 68 124 5.0 5.0 0.00 0.00 0.00 57 1016.0
20260504021556 68 123 5.0 5.0 0.00 0.00 0.00 57 1016.0
20260504021057 69 129 3.0 6.0 0.00 0.00 0.00 56 1016.0
20260504020557 69 179 2.0 5.0 0.00 0.00 0.00 56 1016.0
20260504020056 69 131 5.0 7.0 0.00 0.00 0.00 56 1016.0
20260504015557 69 115 2.0 5.0 0.00 0.00 0.00 55 1016.0
20260504015056 69 130 5.0 6.0 0.00 0.00 0.00 55 1016.0
20260504014556 69 126 5.0 5.0 0.00 0.00 0.00 55 1016.0
20260504014056 70 136 3.0 4.0 0.00 0.00 0.00 55 1016.0
20260504013556 70 131 4.0 6.0 0.00 0.00 0.00 54 1016.0
20260504013056 70 125 5.0 5.0 0.00 0.00 0.00 53 1016.0
20260504012556 71 164 0.0 4.0 0.00 0.00 0.00 53 1016.0
20260504012057 71 143 2.0 6.0 0.00 0.00 0.00 52 1016.0
20260504011556 71 127 2.0 6.0 0.00 0.00 0.00 52 1016.0
20260504011057 71 140 3.0 8.0 0.00 0.00 0.00 51 1016.0
20260504010556 71 145 3.0 8.0 0.00 0.00 0.00 50 1016.0
20260504010057 72 143 1.0 8.0 0.00 0.00 0.00 50 1016.0
20260504005556 72 138 3.0 7.0 0.00 0.00 0.00 48 1016.0
20260504005056 72 144 2.0 6.0 0.00 0.00 0.00 48 1015.0
20260504004556 73 131 4.0 7.0 0.00 0.00 0.00 47 1016.0
20260504004056 73 123 5.0 6.0 0.00 0.00 0.00 47 1015.0
20260504003556 73 130 3.0 6.0 0.00 0.00 0.00 46 1016.0
20260504003058 73 107 2.0 5.0 0.00 0.00 0.00 45 1015.0
20260504002556 74 131 2.0 5.0 0.00 0.00 0.00 45 1016.0
20260504002056 74 169 2.0 10.0 0.00 0.00 0.00 45 1015.0
20260504001556 75 138 2.0 6.0 0.00 0.00 0.00 44 1016.0
20260504001102 75 111 5.0 11.0 0.00 0.00 0.00 44 1016.0
20260504000556 75 195 3.0 5.0 0.00 0.00 0.00 43 1016.0
20260504000056 75 137 6.0 9.0 0.00 0.00 0.00 43 1016.0
20260503235556 75 195 3.0 8.0 0.00 0.00 0.00 42 1016.0
20260503235057 76 131 5.0 10.0 0.00 0.00 0.00 42 1016.0
20260503234556 76 162 3.0 9.0 0.00 0.00 0.00 43 1016.0
20260503234057 76 140 2.0 7.0 0.00 0.00 0.00 42 1016.0
20260503233556 77 171 3.0 11.0 0.00 0.00 0.00 41 1016.0
20260503233057 77 155 1.0 5.0 0.00 0.00 0.00 41 1016.0
20260503232556 77 164 2.0 6.0 0.00 0.00 0.00 41 1016.0
20260503232056 77 140 4.0 5.0 0.00 0.00 0.00 41 1016.0
20260503231557 77 234 1.0 3.0 0.00 0.00 0.00 41 1016.0
20260503231056 78 143 6.0 7.0 0.00 0.00 0.00 40 1016.0
20260503230556 78 164 0.0 6.0 0.00 0.00 0.00 40 1016.0
20260503230056 77 142 7.0 12.0 0.00 0.00 0.00 39 1016.0
20260503225556 77 99 3.0 5.0 0.00 0.00 0.00 39 1016.0
20260503225056 78 135 10.0 11.0 0.00 0.00 0.00 38 1016.0
20260503224556 78 163 2.0 10.0 0.00 0.00 0.00 40 1016.0
20260503224056 77 118 3.0 6.0 0.00 0.00 0.00 40 1016.0
20260503223556 77 122 7.0 10.0 0.00 0.00 0.00 39 1016.0
20260503223056 78 125 7.0 11.0 0.00 0.00 0.00 38 1016.0
20260503222557 78 133 3.0 6.0 0.00 0.00 0.00 39 1016.0
20260503222056 78 168 2.0 10.0 0.00 0.00 0.00 38 1016.0
20260503221556 78 145 0.0 10.0 0.00 0.00 0.00 37 1016.0
20260503221056 79 128 4.0 10.0 0.00 0.00 0.00 37 1016.0
20260503220556 79 82 6.0 6.0 0.00 0.00 0.00 37 1016.0
20260503220057 78 124 1.0 10.0 0.00 0.00 0.00 37 1016.0
20260503215556 78 283 0.0 3.0 0.00 0.00 0.00 37 1016.0
20260503215057 79 121 11.0 13.0 0.00 0.00 0.00 35 1016.0
20260503214557 79 40 3.0 5.0 0.00 0.00 0.00 36 1017.0
20260503214056 79 106 6.0 7.0 0.00 0.00 0.00 36 1017.0
20260503213556 79 136 3.0 10.0 0.00 0.00 0.00 34 1017.0
20260503213057 79 77 3.0 10.0 0.00 0.00 0.00 34 1017.0
20260503212556 79 138 1.0 5.0 0.00 0.00 0.00 35 1017.0
20260503212056 79 157 5.0 10.0 0.00 0.00 0.00 35 1017.0
20260503211557 79 107 7.0 8.0 0.00 0.00 0.00 35 1017.0
20260503211056 79 97 3.0 8.0 0.00 0.00 0.00 34 1017.0
20260503210556 79 43 3.0 4.0 0.00 0.00 0.00 34 1017.0